Change the Weather History Date:

Friday, December 13, 2013

  Actual Average (KGYR) Record (KGYR)
Temperature  
Mean Temperature 48 °F -  
Max Temperature 60 °F 64 °F 80 °F (2010)
Min Temperature 35 °F 39 °F 30 °F (1997)
Degree Days  
Heating Degree Days 18    
Moisture  
Dew Point 29 °F    
Average Humidity 52    
Maximum Humidity 81    
Minimum Humidity 27    
Precipitation  
Precipitation 0.00 in - - ()
Sea Level Pressure  
Sea Level Pressure 30.13 in    
Wind  
Wind Speed 3 mph (NNW)    
Max Wind Speed 9 mph    
Max Gust Speed -    
Visibility 10 miles    
Events      
Averages and records for this station are not official NWS values.
T = Trace of Precipitation, MM = Missing Value Source: NWS Daily Summary

Daily Weather History Graph

Daily Weather History Graph

Search for Another Location

Airport or City:

Trip Planner

Search our weather history database for the weather conditions in past years. The results will help you decide how hot, cold, wet, or windy it might be!

Date:

Astronomy

Dec. 13, 2013 Rise Set
Actual Time 7:26 AM MST 5:24 PM MST
Civil Twilight 6:58 AM MST 5:51 PM MST
Nautical Twilight 6:27 AM MST 6:22 PM MST
Astronomical Twilight 5:57 AM MST 6:52 PM MST
Moon 3:03 PM MST (12/13) 3:59 AM MST (12/13)
Length of Visible Light 10h 52m
Length of Day
9h 57m
Waxing Gibbous, 88% of the Moon is Illuminated
Dec 13
Waxing Gibbous
Dec 17
Full
Dec 25
Last Quarter
Jan 1
New
Jan 7
First Quarter

Hourly Weather History & Observations

Time (MST) Temp. Windchill Dew Point Humidity Pressure Visibility Wind Dir Wind Speed Gust Speed Precip Events Conditions
12:15 AM 44.6 °F 41.4 °F 26.6 °F 49% 30.11 in 10.0 mi North 5.8 mph - N/A   Clear
12:35 AM 44.6 °F - 26.6 °F 49% 30.11 in 10.0 mi Calm Calm - N/A   Clear
12:55 AM 41.0 °F - 28.4 °F 61% 30.11 in 10.0 mi Calm Calm - N/A   Clear
1:15 AM 41.0 °F - 28.4 °F 61% 30.11 in 10.0 mi Calm Calm - N/A   Clear
1:35 AM 41.0 °F - 28.4 °F 61% 30.11 in 10.0 mi Calm Calm - N/A   Clear
1:55 AM 41.0 °F - 28.4 °F 61% 30.12 in 10.0 mi Calm Calm - N/A   Clear
2:15 AM 41.0 °F 38.0 °F 28.4 °F 61% 30.12 in 10.0 mi NW 4.6 mph - N/A   Clear
2:35 AM 41.0 °F - 28.4 °F 61% 30.12 in 10.0 mi Calm Calm - N/A   Clear
2:55 AM 39.2 °F 37.0 °F 28.4 °F 65% 30.12 in 10.0 mi North 3.5 mph - N/A   Clear
3:15 AM 39.2 °F - 28.4 °F 65% 30.12 in 10.0 mi Calm Calm - N/A   Clear
3:35 AM 39.2 °F 34.2 °F 28.4 °F 65% 30.12 in 10.0 mi NNW 6.9 mph - N/A   Clear
3:55 AM 39.2 °F 33.6 °F 28.4 °F 65% 30.11 in 10.0 mi North 8.1 mph - N/A   Partly Cloudy
4:15 AM 39.2 °F 33.6 °F 28.4 °F 65% 30.10 in 10.0 mi NNE 8.1 mph - N/A   Partly Cloudy
4:35 AM 39.2 °F 35.0 °F 28.4 °F 65% 30.10 in 10.0 mi ENE 5.8 mph - N/A   Clear
4:55 AM 39.2 °F 37.0 °F 28.4 °F 65% 30.11 in 10.0 mi ESE 3.5 mph - N/A   Clear
5:15 AM 39.2 °F 37.0 °F 28.4 °F 65% 30.11 in 10.0 mi SE 3.5 mph - N/A   Clear
5:35 AM 37.4 °F - 28.4 °F 70% 30.12 in 10.0 mi Calm Calm - N/A   Clear
5:55 AM 37.4 °F 34.9 °F 28.4 °F 70% 30.12 in 10.0 mi NNE 3.5 mph - N/A   Clear
6:15 AM 37.4 °F 31.4 °F 28.4 °F 70% 30.12 in 10.0 mi North 8.1 mph - N/A   Clear
6:35 AM 37.4 °F 32.8 °F 30.2 °F 75% 30.13 in 10.0 mi North 5.8 mph - N/A   Clear
6:55 AM 35.6 °F 31.7 °F 30.2 °F 81% 30.14 in 10.0 mi WNW 4.6 mph - N/A   Clear
7:15 AM 35.6 °F 29.9 °F 30.2 °F 81% 30.14 in 10.0 mi North 6.9 mph - N/A   Clear
7:35 AM 37.4 °F 33.8 °F 30.2 °F 75% 30.14 in 10.0 mi ENE 4.6 mph - N/A   Clear
7:55 AM 39.2 °F 35.0 °F 30.2 °F 70% 30.14 in 10.0 mi ENE 5.8 mph - N/A   Clear
8:15 AM 41.0 °F - 30.2 °F 65% 30.15 in 10.0 mi Calm Calm - N/A   Clear
8:35 AM 44.6 °F - 30.2 °F 57% 30.16 in 10.0 mi Calm Calm - N/A   Clear
8:55 AM 42.8 °F - 32.0 °F 66% 30.17 in 10.0 mi Calm Calm - N/A   Clear
9:15 AM 44.6 °F - 32.0 °F 61% 30.17 in 10.0 mi Calm Calm - N/A   Clear
9:35 AM 46.4 °F 45.2 °F 32.0 °F 57% 30.18 in 10.0 mi East 3.5 mph - N/A   Clear
9:55 AM 48.2 °F - 32.0 °F 54% 30.19 in 10.0 mi Calm Calm - N/A   Clear
10:15 AM 50.0 °F - 32.0 °F 50% 30.19 in 10.0 mi Calm Calm - N/A   Clear
10:35 AM 51.8 °F - 32.0 °F 47% 30.19 in 10.0 mi Calm Calm - N/A   Clear
10:55 AM 53.6 °F - 32.0 °F 44% 30.19 in 10.0 mi Calm Calm - N/A   Clear
11:15 AM 53.6 °F - 32.0 °F 44% 30.19 in 10.0 mi Calm Calm - N/A   Clear
11:35 AM 55.4 °F - 28.4 °F 36% 30.18 in 10.0 mi East 3.5 mph - N/A   Clear
11:55 AM 57.2 °F - 28.4 °F 33% 30.18 in 10.0 mi Calm Calm - N/A   Clear
12:15 PM 57.2 °F - 28.4 °F 33% 30.17 in 10.0 mi SSE 3.5 mph - N/A   Clear
12:35 PM 57.2 °F - 28.4 °F 33% 30.15 in 10.0 mi Calm Calm - N/A   Clear
12:55 PM 57.2 °F - 28.4 °F 33% 30.13 in 10.0 mi Calm Calm - N/A   Clear
1:15 PM 59.0 °F - 26.6 °F 29% 30.13 in 10.0 mi WSW 4.6 mph - N/A   Clear
1:35 PM 59.0 °F - 26.6 °F 29% 30.12 in 10.0 mi West 3.5 mph - N/A   Clear
1:55 PM 59.0 °F - 26.6 °F 29% 30.12 in 10.0 mi SSW 3.5 mph - N/A   Clear
2:15 PM 59.0 °F - 26.6 °F 29% 30.12 in 10.0 mi West 4.6 mph - N/A   Clear
2:55 PM 59.0 °F - 26.6 °F 29% 30.10 in 10.0 mi WSW 5.8 mph - N/A   Clear
3:15 PM 60.8 °F - 26.6 °F 27% 30.10 in 10.0 mi SW 3.5 mph - N/A   Clear
3:35 PM 59.0 °F - 26.6 °F 29% 30.10 in 10.0 mi Calm Calm - N/A   Clear
3:55 PM 59.0 °F - 26.6 °F 29% 30.10 in 10.0 mi Calm Calm - N/A   Clear
4:15 PM 60.8 °F - 26.6 °F 27% 30.09 in 10.0 mi Calm Calm - N/A   Clear
4:35 PM 59.0 °F - 28.4 °F 31% 30.09 in 10.0 mi Calm Calm - N/A   Clear
4:55 PM 59.0 °F - 28.4 °F 31% 30.09 in 10.0 mi Calm Calm - N/A   Clear
5:15 PM 57.2 °F - 32.0 °F 38% 30.09 in 10.0 mi SW 4.6 mph - N/A   Clear
5:35 PM 55.4 °F - 32.0 °F 41% 30.10 in 10.0 mi Calm Calm - N/A   Clear
5:55 PM 55.4 °F - 32.0 °F 41% 30.10 in 10.0 mi Calm Calm - N/A   Clear
6:15 PM 53.6 °F - 32.0 °F 44% 30.10 in 10.0 mi Calm Calm - N/A   Clear
6:35 PM 50.0 °F - 32.0 °F 50% 30.12 in 10.0 mi NNE 3.5 mph - N/A   Clear
6:55 PM 50.0 °F - 32.0 °F 50% 30.12 in 10.0 mi NNE 3.5 mph - N/A   Clear
7:15 PM 48.2 °F - 32.0 °F 54% 30.13 in 10.0 mi Calm Calm - N/A   Clear
7:35 PM 46.4 °F 44.3 °F 32.0 °F 57% 30.13 in 10.0 mi North 4.6 mph - N/A   Clear
7:55 PM 46.4 °F 44.3 °F 32.0 °F 57% 30.13 in 10.0 mi NW 4.6 mph - N/A   Clear
8:15 PM 46.4 °F - 32.0 °F 57% 30.14 in 10.0 mi Calm Calm - N/A   Clear
8:35 PM 48.2 °F - 28.4 °F 46% 30.14 in 10.0 mi WNW 3.5 mph - N/A   Clear
8:55 PM 46.4 °F 44.3 °F 28.4 °F 50% 30.14 in 10.0 mi WNW 4.6 mph - N/A   Clear
9:15 PM 46.4 °F 44.3 °F 26.6 °F 46% 30.14 in 10.0 mi WNW 4.6 mph - N/A   Clear
9:35 PM 46.4 °F 43.5 °F 26.6 °F 46% 30.15 in 10.0 mi NW 5.8 mph - N/A   Clear
9:55 PM 44.6 °F 41.4 °F 26.6 °F 49% 30.16 in 10.0 mi NW 5.8 mph - N/A   Clear
10:15 PM 42.8 °F - 28.4 °F 57% 30.16 in 10.0 mi Calm Calm - N/A   Clear
10:35 PM 42.8 °F - 28.4 °F 57% 30.17 in 10.0 mi Calm Calm - N/A   Clear
10:55 PM 41.0 °F 35.8 °F 28.4 °F 61% 30.18 in 10.0 mi NNW 8.1 mph - N/A   Clear
11:15 PM 41.0 °F 35.2 °F 30.2 °F 65% 30.18 in 10.0 mi North 9.2 mph - N/A   Clear
11:35 PM 41.0 °F - 30.2 °F 65% 30.18 in 10.0 mi Calm Calm - N/A   Clear
11:55 PM 39.2 °F 37.0 °F 30.2 °F 70% 30.19 in 10.0 mi NNE 3.5 mph - N/A   Clear